Regional Weather Roundup
Issued by NWS State College, PA

Home | Current Version | Previous Version | Graphics & Text | Print | Product List | Glossary Off
Versions: 1 2 3 4 5 6 7 8 9 10 11 12 13 14 15 16 17 18 19 20 21 22 23 24 25 26 27 28 29 30 31 32 33 34 35 36 37 38 39 40 41 42 43 44 45 46 47 48 49 50

000
ASUS41 KCTP 261310
RWRCTP

REGIONAL WEATHER ROUNDUP
NATIONAL WEATHER SERVICE STATE COLLEGE PA
800 AM EST SUN FEB 26 2017

Note: "fair" indicates few or no clouds below 12,000 feet with no
significant weather and/or obstructions to visibility.

* = STATION THAT DOES NOT REPORT PRECIPITATION /E.G. RAIN...SNOW...ETC/
    THUNDER OR FOG.

PAZ002>004-007>009-013>016-020>023-029>032-261400-
WESTERN PENNSYLVANIA

CITY           SKY/WX    TMP DP  RH WIND       PRES   REMARKS
ERIE           CLOUDY    27  17  66 W12G22    30.07R
MEADVILLE      CLOUDY    22  15  75 W7        30.04R WCI  13
FRANKLIN*      CLOUDY    21  16  79 W8        30.05R WCI  12
NEW CASTLE     CLOUDY    26  14  60 W12G18    30.10R
BEAVER COUNTY  NOT AVBL
BUTLER*        CLOUDY    27  14  59 W9G16     30.09R
PITTSBURGH INT FLURRIES  27  20  75 W10       30.08R
PITTSBURGH     FLURRIES  27  17  66 W9        30.08R
INDIANA*       CLOUDY    27  23  86 W8        30.08R FOG
LATROBE        FLURRIES  27  18  69 W12       30.08R
WASHINGTON CO* CLOUDY    28  16  59 W10       30.11R
$$

PAZ004>006-010>012-017>019-024>028-033>037-041-042-045-046-049>053-261400-
CENTRAL PENNSYLVANIA

CITY           SKY/WX    TMP DP  RH WIND       PRES   REMARKS
BRADFORD       CLOUDY    21  13  71 W13G21    29.95R WCI   9
DUBOIS         LGT SNOW  22  17  81 W10       30.00R WCI  11
CLEARFIELD       N/A    N/A N/A N/A MISG      30.01R
JOHNSTOWN      LGT SNOW  22  18  85 W10G23    29.97R FOG     WCI  11
ALTOONA        CLOUDY    27  18  69 W13       30.03R
STATE COLLEGE  PTSUNNY   27  14  59 W10       30.02R
WILLIAMSPORT   FLURRIES  32  17  54 NW10      30.02R
SELINSGROVE    CLOUDY    31  16  54 W6G17     30.05R
FT INDIANTOWN  CLOUDY    31  13  47 NW12G18   30.04R
CAPITAL CITY   CLOUDY    34  12  40 NW14G24   30.06R
HARRISBURG     CLOUDY    33  15  47 NW18G30   30.06R
YORK           CLOUDY    32  17  54 NW15      30.05R
$$

PAZ038>040-043-044-047-048-054-055-060>062-067>071-261400-
EASTERN PENNSYLVANIA

CITY           SKY/WX    TMP DP  RH WIND       PRES   REMARKS
SCRANTON       CLOUDY    30  18  60 N17G25    29.96R
MOUNT POCONO   CLOUDY    25  17  72 NW14G21   29.87R WCI  13
ALLENTOWN      CLOUDY    35  16  45 NW18G25   29.98R
QUAKERTOWN*    CLOUDY    32  16  51 NW12G22   29.99R
READING        PTSUNNY   34  17  50 NW16      30.02R
LANCASTER      CLOUDY    33  17  51 NW22      30.03R
COATESVILLE    CLOUDY    32  18  55 NW16G24   30.02R
POTTSTOWN      CLOUDY    33  17  51 W15G24    30.02R
BLUE BELL      CLOUDY    34  19  55 W13       29.99R
DOYLESTOWN     CLOUDY    34  19  54 NW16G24   29.97R
WILLOW GROVE   NOT AVBL
NORTH PHILA    CLOUDY    37  19  48 W18G26    30.01R
PHILADELPHIA   PTSUNNY   37  19  48 NW17      30.02R
$$




USA.gov is the U.S. government's official web portal to all federal, state and local government web resources and services.